#timestamp,LO_Frequency,Hit 
1503979215.7,286046990.1,N
1503979235.5,286046991.1,N
1503979255.3,286046992.9,N
1503979275.2,286046994.4,N
1503979295.9,286046992.3,N
1503979315.7,286046992.8,N
1503979335.6,286046992.9,N
1503979355.4,286046991.9,N
1503979375.2,286046995.4,N
1503979395.0,286046997.3,N
1503979395.9,286046997.3,N
1503979415.8,286047001.5,N
1503979435.6,286047006.7,N
1503979455.4,286047006.8,N
1503979475.3,286047001.4,N
1503979495.1,286047003.5,N
1503979515.8,286047007.3,N
1503979535.7,286047007.1,N
1503979555.5,286047008.9,N
1503979575.3,286047008.5,N
1503979595.2,286047010.5,N
1503979615.9,286047008.8,N
1503979635.7,286047006.5,N
1503979655.5,286047007.3,N
1503979675.4,286047004.5,N
1503979695.2,286047006.0,N
1503979715.0,286047007.4,N
1503979715.9,286047007.4,N
1503979735.8,286047006.1,N
1503979755.6,286047010.0,N
1503979775.4,286047011.9,N
1503979795.3,286047007.8,N
1503979815.1,286047013.3,N
1503979835.8,286047011.7,N
1503979855.7,286047012.2,N
1503979875.5,286047011.1,N
1503979895.3,286047014.8,N
1503979915.2,286047015.0,N
1503979935.9,286047015.3,P
1503979955.7,286047007.5,N
1503979975.6,286047011.8,P
1503979995.4,286047012.3,P
1503980015.2,286047004.2,P
1503980035.1,286047000.3,N
1503980036.0,286047000.3,N
1503980055.8,286046999.4,N
1503980075.6,286047001.2,N
1503980095.5,286047000.6,N
1503980115.3,286047005.8,N
1503980135.1,286047003.5,N
1503980155.9,286046998.1,N
1503980175.7,286047000.9,N
1503980195.5,286047004.2,N
1503980215.4,286047000.7,N
1503980235.2,286046996.7,N
1503980255.0,286046999.9,N
1503980255.9,286046999.9,N
1503980275.7,286047000.8,N
1503980295.6,286047000.7,N
1503980315.4,286047000.0,N
1503980335.2,286047000.3,N
1503980355.1,286047000.8,N
1503980356.0,286047000.8,N
1503980375.8,286046999.5,N
1503980395.6,286047001.4,N
1503980415.5,286047006.0,N
1503980435.3,286047003.4,N
1503980455.1,286047005.5,N
1503980475.9,286047002.5,N
1503980495.7,286046998.1,N
1503980515.5,286046996.8,N
1503980535.4,286046998.7,N
1503980555.2,286046997.6,N
1503980575.0,286046995.7,N
1503980575.9,286046995.7,N
1503980595.9,286046995.8,N
1503980615.7,286046996.5,N
1503980635.6,286046997.0,N
1503980655.4,286046997.7,N
1503980675.2,286046997.2,N
1503980695.1,286046998.2,N
1503980696.0,286046998.2,N
1503980715.8,286047004.6,N
1503980735.6,286047003.4,N
1503980755.4,286047007.5,N
1503980775.3,286047004.1,N
1503980795.1,286046999.9,N
1503980815.8,286046999.1,N
1503980835.7,286046994.0,N
1503980855.5,286046994.3,N
1503980875.3,286046990.6,N
1503980895.2,286046993.2,N
1503980915.9,286046992.6,N
1503980935.7,286046991.5,N
1503980955.6,286046988.3,N
1503980975.4,286046985.2,P
1503980995.2,286046985.9,N
1503981015.1,286046986.1,N
1503981016.0,286046986.1,N
1503981035.8,286046984.1,P
1503981055.6,286046995.0,N
1503981075.5,286046999.4,N
1503981095.3,286046997.8,N
1503981115.1,286046994.1,N
1503981135.9,286046994.4,N
1503981155.7,286046990.2,N
1503981175.5,286046990.8,N
1503981195.4,286046990.8,N
1503981215.2,286046993.2,N
1503981235.0,286046991.1,N
1503981235.9,286046991.1,N
1503981255.8,286046987.6,P
1503981275.6,286046993.8,N
1503981295.4,286046996.1,N
1503981315.3,286046996.6,N
1503981335.1,286047000.4,N
1503981336.0,286047000.4,N
1503981355.8,286047000.7,N
1503981375.7,286046997.4,N
1503981395.5,286046995.3,N
1503981415.3,286046995.2,N
1503981435.1,286046999.5,N
1503981455.9,286046995.4,N
1503981475.7,286046995.1,N
1503981495.5,286046998.9,N
1503981515.4,286047005.1,N
1503981535.2,286047008.7,N
1503981555.0,286047007.1,N
1503981555.9,286047007.1,N
1503981575.8,286047006.9,N
1503981595.6,286047010.1,N
1503981615.4,286047009.4,N
1503981635.3,286047012.5,N
1503981655.1,286047012.7,N
1503981656.0,286047012.7,N
1503981675.8,286047013.2,N
1503981695.7,286047011.0,N
1503981715.5,286047010.0,N
1503981735.3,286047011.1,N
1503981755.1,286047015.5,N
1503981775.9,286047016.2,N
1503981795.7,286047020.1,N
1503981815.5,286047021.9,N
1503981835.4,286047016.2,N
1503981855.2,286047020.8,N
1503981875.0,286047023.1,N
1503981875.9,286047023.1,N
1503981895.8,286047023.4,N
1503981915.6,286047022.6,N
1503981935.4,286047023.6,N
1503981955.3,286047022.4,N
1503981975.1,286047025.2,P
1503981995.8,286047011.7,N
1503982015.7,286047010.1,N
1503982035.5,286047009.2,N
1503982055.3,286047006.5,N
1503982075.2,286047008.1,N
1503982095.9,286047009.1,N
1503982115.7,286047007.8,N
1503982135.6,286047006.1,N
1503982155.4,286047008.7,N
1503982175.2,286047009.2,N
1503982195.1,286047009.8,N
1503982196.0,286047009.8,N
1503982215.8,286047011.8,N
1503982235.6,286047014.7,P
1503982255.5,286047003.8,N
1503982275.3,286047001.3,N
1503982295.1,286047005.4,N
1503982315.9,286047004.4,N
1503982335.7,286047002.8,N
1503982355.5,286047000.6,N
1503982375.4,286047001.8,N
1503982395.2,286047004.3,N
1503982415.0,286047004.0,N
1503982415.9,286047004.0,N
1503982435.7,286047000.2,N
1503982455.6,286047001.2,N
1503982475.4,286047001.5,N
1503982495.2,286047004.4,N
1503982515.1,286047002.2,N
1503982516.0,286047002.2,N
1503982535.8,286046999.4,N
1503982555.6,286047000.4,N
1503982575.5,286047000.3,N
1503982595.3,286047002.2,N
1503982615.1,286047000.1,N
1503982635.9,286047002.2,N
1503982655.7,286047003.5,N
1503982675.5,286047005.8,N
1503982695.3,286047005.3,N
1503982715.2,286047001.9,N
1503982735.0,286047000.5,N
1503982735.9,286047000.5,N
1503982755.7,286047003.7,N
1503982775.6,286047002.9,N
1503982795.4,286047004.6,N
